GW6383 Weather Reports


time (UTC)temp
F
wind
direction
speed
knots
gust
knots
rain 1hr
in
rain 24hr
in
rain mn
in
humidity
%
barometer
mb
20260507230530 76 227 6.1 7.8 0.00 0.00 0.00 25 1012.1
20260507230026 77 211 2.6 3.5 0.00 0.00 0.00 25 1012.1
20260507225521 77 237 6.1 7.0 0.00 0.00 0.00 30 1012.1
20260507225018 77 220 2.6 3.5 0.00 0.00 0.00 28 1012.2
20260507224514 76 216 1.7 1.7 0.00 0.00 0.00 26 1012.1
20260507224010 77 172 2.6 5.2 0.00 0.00 0.00 28 1012.4
20260507223507 76 229 3.5 3.5 0.00 0.00 0.00 28 1012.4
20260507223004 77 211 6.1 7.0 0.00 0.00 0.00 26 1012.4
20260507222501 76 235 0.9 1.7 0.00 0.00 0.00 25 1012.4
20260507221957 77 203 4.3 6.1 0.00 0.00 0.00 27 1012.6
20260507221454 77 226 2.6 2.6 0.00 0.00 0.00 30 1012.5
20260507220950 76 286 7.8 9.6 0.00 0.00 0.00 26 1012.6
20260507220448 76 207 7.0 9.6 0.00 0.00 0.00 27 1012.6
20260507215944 75 225 4.3 6.1 0.00 0.00 0.00 25 1012.7
20260507215441 75 226 7.8 11.3 0.00 0.00 0.00 28 1012.8
20260507214938 76 218 6.1 9.6 0.00 0.00 0.00 29 1012.6
20260507214436 76 208 3.5 3.5 0.00 0.00 0.00 28 1012.9
20260507213931 76 235 4.3 7.8 0.00 0.00 0.00 28 1012.9
20260507213428 77 216 2.6 5.2 0.00 0.00 0.00 25 1012.9
20260507212925 76 211 3.5 6.1 0.00 0.00 0.00 29 1013.0
20260507212421 76 189 6.1 8.7 0.00 0.00 0.00 27 1013.1
20260507211918 76 236 2.6 3.5 0.00 0.00 0.00 30 1013.1
20260507211414 76 218 5.2 7.0 0.00 0.00 0.00 28 1013.1
20260507210911 77 229 1.7 2.6 0.00 0.00 0.00 27 1013.2
20260507210408 76 203 4.3 7.0 0.00 0.00 0.00 29 1013.4
20260507205904 75 242 1.7 3.5 0.00 0.00 0.00 29 1013.6
20260507205402 75 261 6.1 7.0 0.00 0.00 0.00 30 1013.6
20260507204858 76 246 3.5 5.2 0.00 0.00 0.00 30 1013.8
20260507204355 77 223 3.5 6.1 0.00 0.00 0.00 26 1013.9
20260507203852 76 316 4.3 6.1 0.00 0.00 0.00 29 1014.1
20260507203350 74 229 6.1 7.0 0.00 0.00 0.00 32 1014.1
20260507202846 74 216 4.3 7.0 0.00 0.00 0.00 34 1014.3
20260507202343 74 214 3.5 6.1 0.00 0.00 0.00 30 1014.5
20260507201838 73 210 2.6 2.6 0.00 0.00 0.00 28 1014.5
20260507201334 73 216 6.1 8.7 0.00 0.00 0.00 29 1014.7
20260507200831 73 242 4.3 6.1 0.00 0.00 0.00 33 1014.8
20260507200327 72 222 7.8 11.3 0.00 0.00 0.00 29 1014.6
20260507195823 73 221 2.6 2.6 0.00 0.00 0.00 31 1014.9
20260507195320 73 207 7.8 13.0 0.00 0.00 0.00 32 1015.0
20260507194818 73 257 3.5 5.2 0.00 0.00 0.00 32 1015.0
20260507194314 73 207 3.5 5.2 0.00 0.00 0.00 32 1015.1
20260507193810 72 210 5.2 7.0 0.00 0.00 0.00 33 1015.3
20260507193308 72 209 7.8 11.3 0.00 0.00 0.00 32 1015.2
20260507192803 73 236 3.5 6.1 0.00 0.00 0.00 30 1015.5
20260507192300 72 235 4.3 6.1 0.00 0.00 0.00 35 1015.5
20260507191756 71 234 2.6 5.2 0.00 0.00 0.00 34 1015.4
20260507191253 71 215 5.2 6.1 0.00 0.00 0.00 34 1015.7
20260507190750 71 203 4.3 5.2 0.00 0.00 0.00 36 1015.5
20260507190248 71 220 1.7 2.6 0.00 0.00 0.00 36 1015.5
20260507185747 71 127 4.3 6.1 0.00 0.00 0.00 39 1015.5
20260507185243 70 248 5.2 8.7 0.00 0.00 0.00 38 1015.7
20260507184741 70 219 8.7 12.2 0.00 0.00 0.00 35 1015.7
20260507184239 70 208 7.8 7.8 0.00 0.00 0.00 36 1015.9
20260507183735 71 231 3.5 3.5 0.00 0.00 0.00 34 1016.1
20260507183232 70 223 7.0 8.7 0.00 0.00 0.00 36 1016.1
20260507182729 70 255 2.6 6.1 0.00 0.00 0.00 40 1016.5
20260507182224 70 229 1.7 2.6 0.00 0.00 0.00 38 1016.2
20260507181721 69 229 7.0 8.7 0.00 0.00 0.00 39 1016.5
20260507181218 68 219 2.6 3.5 0.00 0.00 0.00 41 1016.6
20260507180714 68 220 4.3 6.1 0.00 0.00 0.00 38 1016.8
20260507180211 68 231 7.8 11.3 0.00 0.00 0.00 38 1016.7
20260507175707 67 236 3.5 6.1 0.00 0.00 0.00 40 1016.8
20260507175204 67 208 7.8 8.7 0.00 0.00 0.00 40 1016.9
20260507174701 66 222 5.2 7.0 0.00 0.00 0.00 44 1017.0
20260507174159 67 234 5.2 6.1 0.00 0.00 0.00 41 1017.1
20260507173656 67 229 3.5 6.1 0.00 0.00 0.00 44 1017.2
20260507173153 68 252 3.5 6.1 0.00 0.00 0.00 42 1017.4
20260507172650 68 226 2.6 3.5 0.00 0.00 0.00 42 1017.6
20260507172147 67 234 5.2 8.7 0.00 0.00 0.00 42 1017.4
20260507171647 65 280 5.2 6.1 0.00 0.00 0.00 47 1017.6
20260507171144 65 231 7.8 8.7 0.00 0.00 0.00 45 1017.6
20260507170641 65 212 10.4 14.8 0.00 0.00 0.00 43 1017.7
20260507170138 65 222 6.1 7.8 0.00 0.00 0.00 46 1018.0
20260507165634 66 262 7.8 9.6 0.00 0.00 0.00 44 1018.2
20260507165130 64 251 4.3 6.1 0.00 0.00 0.00 50 1018.1
20260507164626 65 227 7.0 7.8 0.00 0.00 0.00 45 1018.2
20260507164123 64 231 7.8 9.6 0.00 0.00 0.00 45 1018.0
20260507163620 63 219 7.8 11.3 0.00 0.00 0.00 50 1018.0
20260507163119 64 214 3.5 3.5 0.00 0.00 0.00 47 1018.1
20260507162614 62 249 6.1 7.8 0.00 0.00 0.00 50 1018.4
20260507162111 62 296 5.2 7.8 0.00 0.00 0.00 50 1018.3
20260507161607 62 271 7.0 7.8 0.00 0.00 0.00 51 1018.2
20260507161103 62 236 10.4 15.6 0.00 0.00 0.00 47 1018.5
20260507160600 62 236 8.7 12.2 0.00 0.00 0.00 48 1018.6
20260507160056 62 82 7.8 12.2 0.00 0.00 0.00 49 1018.4
20260507155551 60 206 1.7 3.5 0.00 0.00 0.00 55 1018.4
20260507155049 60 218 9.6 13.9 0.00 0.00 0.00 55 1018.7
20260507154546 60 232 5.2 7.0 0.00 0.00 0.00 53 1018.6
20260507154043 60 229 6.1 7.8 0.00 0.00 0.00 55 1018.9
20260507153539 59 234 5.2 7.8 0.00 0.00 0.00 57 1018.6
20260507153036 59 216 6.1 8.7 0.00 0.00 0.00 54 1018.7
20260507152532 58 205 6.1 7.0 0.00 0.00 0.00 57 1018.8
20260507152028 59 228 8.7 9.6 0.00 0.00 0.00 55 1019.1
20260507151524 59 199 4.3 5.2 0.00 0.00 0.00 59 1019.1
20260507151021 58 219 3.5 6.1 0.00 0.00 0.00 60 1019.1
20260507150518 59 255 3.5 5.2 0.00 0.00 0.00 60 1019.3
20260507150015 58 231 2.6 3.5 0.00 0.00 0.00 60 1019.1
20260507145510 57 247 3.5 5.2 0.00 0.00 0.00 62 1019.5
20260507145008 57 219 2.6 5.2 0.00 0.00 0.00 59 1019.3
20260507144504 57 252 9.6 9.6 0.00 0.00 0.00 58 1019.3
20260507144002 57 215 5.2 9.6 0.00 0.00 0.00 64 1019.5
20260507143459 56 178 3.5 6.1 0.00 0.00 0.00 62 1019.6
20260507142955 56 225 5.2 7.8 0.00 0.00 0.00 64 1019.5
20260507142451 56 42 1.7 2.6 0.00 0.00 0.00 67 1019.5
20260507141948 55 213 1.7 2.6 0.00 0.00 0.00 69 1019.5
20260507141444 55 212 2.6 2.6 0.00 0.00 0.00 69 1019.5
20260507140941 55 238 2.6 3.5 0.00 0.00 0.00 70 1019.5
20260507140438 54 220 2.6 2.6 0.00 0.00 0.00 71 1019.6
20260507135936 54 226 4.3 7.0 0.00 0.00 0.00 72 1019.7
20260507135432 53 223 1.7 1.7 0.00 0.00 0.00 75 1019.8
20260507134930 53 206 5.2 7.0 0.00 0.00 0.00 74 1019.6
20260507134426 52 231 2.6 3.5 0.00 0.00 0.00 77 1019.7
20260507133922 51 218 2.6 2.6 0.00 0.00 0.00 77 1019.7
20260507133419 51 194 1.7 1.7 0.00 0.00 0.00 78 1019.8
20260507132917 51 218 3.5 5.2 0.00 0.00 0.00 79 1019.8
20260507132413 50 229 2.6 2.6 0.00 0.00 0.00 80 1019.8
20260507131909 50 218 1.7 1.7 0.00 0.00 0.00 81 1019.8
20260507131407 49 208 2.6 2.6 0.00 0.00 0.00 81 1020.0
20260507130904 49 219 3.5 5.2 0.00 0.00 0.00 82 1019.9
20260507130400 48 218 1.7 1.7 0.00 0.00 0.00 85 1020.0
20260507125859 48 194 0.9 0.9 0.00 0.00 0.00 86 1020.0
20260507125356 47 215 2.6 2.6 0.00 0.00 0.00 86 1019.9
20260507124854 46 216 0.9 0.9 0.00 0.00 0.00 89 1019.7
20260507124349 45 195 0.0 0.9 0.00 0.00 0.00 91 1019.7
20260507123849 45 207 0.0 0.0 0.00 0.00 0.00 93 1019.7
20260507123345 44 207 0.0 0.0 0.00 0.00 0.00 94 1019.8
20260507122841 44 207 0.0 0.0 0.00 0.00 0.00 94 1020.0
20260507122337 43 207 0.0 0.0 0.00 0.00 0.00 94 1020.0
20260507121834 43 207 0.0 0.0 0.00 0.00 0.00 94 1020.0
20260507121329 42 207 0.0 0.0 0.00 0.00 0.00 94 1019.8
20260507120826 42 207 0.0 0.0 0.00 0.00 0.00 93 1019.7
20260507120322 42 207 0.0 0.0 0.00 0.00 0.00 93 1019.8
20260507115819 42 207 0.0 0.0 0.00 0.00 0.00 92 1019.5
20260507115314 42 207 0.0 0.0 0.00 0.00 0.00 92 1019.6
20260507114810 43 207 0.0 0.0 0.00 0.00 0.00 92 1019.5
20260507114308 43 207 0.0 0.0 0.00 0.00 0.00 92 1019.5
20260507113805 43 207 0.0 0.0 0.00 0.00 0.00 92 1019.4
20260507113302 43 207 0.0 0.0 0.00 0.00 0.00 92 1019.4
20260507112800 43 207 0.0 0.0 0.00 0.00 0.00 92 1019.6
20260507112256 43 207 0.0 0.0 0.00 0.00 0.00 92 1019.4
20260507111754 43 207 0.0 0.0 0.00 0.00 0.00 92 1019.3
20260507111250 43 207 0.0 0.0 0.00 0.00 0.00 92 1019.3
20260507110746 44 207 0.0 0.0 0.00 0.00 0.00 91 1019.6
20260507110243 44 207 0.0 0.0 0.00 0.00 0.00 92 1019.4
20260507105740 44 207 0.0 0.0 0.00 0.00 0.00 92 1019.3
20260507105236 44 207 0.0 0.0 0.00 0.00 0.00 92 1019.4
20260507104733 44 207 0.0 0.0 0.00 0.00 0.00 92 1019.5
20260507104230 44 207 0.0 0.0 0.00 0.00 0.00 92 1019.4
20260507103726 44 207 0.0 0.0 0.00 0.00 0.00 92 1019.5
20260507103222 44 207 0.0 0.0 0.00 0.00 0.00 92 1019.6
20260507102719 44 207 0.0 0.0 0.00 0.00 0.00 92 1019.6
20260507102215 44 207 0.0 0.0 0.00 0.00 0.00 92 1019.4
20260507101711 44 207 0.0 0.0 0.00 0.00 0.00 92 1019.4
20260507101207 44 207 0.0 0.0 0.00 0.00 0.00 92 1019.7
20260507100704 44 207 0.0 0.0 0.00 0.00 0.00 91 1019.5
20260507100203 44 207 0.0 0.0 0.00 0.00 0.00 91 1019.7
20260507095701 44 207 0.0 0.0 0.00 0.00 0.00 91 1019.9
20260507095157 44 207 0.0 0.0 0.00 0.00 0.00 90 1019.6
20260507094653 45 207 0.0 0.0 0.00 0.00 0.00 89 1019.7
20260507094150 45 207 0.0 0.0 0.00 0.00 0.00 89 1019.8
20260507093647 45 207 0.0 0.0 0.00 0.00 0.00 88 1019.7
20260507093146 46 207 0.0 0.0 0.00 0.00 0.00 88 1019.9
20260507092643 46 207 0.0 0.0 0.00 0.00 0.00 87 1019.8
20260507092139 46 207 0.0 0.0 0.00 0.00 0.00 86 1019.7
20260507091635 46 207 0.0 0.0 0.00 0.00 0.00 85 1019.8
20260507091132 47 207 0.0 0.0 0.00 0.00 0.00 84 1019.7
20260507090627 47 207 0.0 0.0 0.00 0.00 0.00 83 1019.9
20260507090125 48 207 0.0 0.0 0.00 0.00 0.00 82 1019.7
20260507085622 48 207 0.0 0.0 0.00 0.00 0.00 82 1019.8
20260507085118 48 207 0.0 0.0 0.00 0.00 0.00 83 1019.6
20260507084615 49 207 0.0 0.0 0.00 0.00 0.00 84 1019.9
20260507084112 49 207 0.0 0.0 0.00 0.00 0.00 84 1019.9
20260507083609 49 207 0.0 0.0 0.00 0.00 0.00 83 1020.0
20260507083106 49 207 0.0 0.0 0.00 0.00 0.00 81 1020.1
20260507082601 49 207 0.0 0.0 0.00 0.00 0.00 81 1020.0
20260507082058 49 207 0.0 0.0 0.00 0.00 0.00 81 1020.1
20260507081554 49 207 0.0 0.0 0.00 0.00 0.00 80 1020.1
20260507081052 49 207 0.0 0.0 0.00 0.00 0.00 80 1020.2
20260507080547 49 207 0.0 0.0 0.00 0.00 0.00 81 1020.0
20260507080044 49 207 0.0 0.0 0.00 0.00 0.00 80 1019.8
20260507075539 50 207 0.0 0.0 0.00 0.00 0.00 80 1020.1
20260507075036 50 207 0.0 0.0 0.00 0.00 0.00 80 1020.2
20260507074533 50 207 0.0 0.0 0.00 0.00 0.00 81 1020.0
20260507074031 50 207 0.0 0.0 0.00 0.00 0.00 81 1020.1
20260507073527 50 207 0.0 0.0 0.00 0.00 0.00 80 1020.1
20260507073024 50 207 0.0 0.0 0.00 0.00 0.00 79 1020.1
20260507072521 50 207 0.0 0.0 0.00 0.00 0.00 80 1020.1
20260507072018 50 207 0.0 0.0 0.00 0.00 0.00 79 1020.2
20260507071516 50 207 0.0 0.0 0.00 0.00 0.00 79 1020.4
20260507071012 50 207 0.0 0.0 0.00 0.00 0.00 79 1020.4
20260507070509 50 207 0.0 0.0 0.00 0.00 0.00 80 1020.4
20260507070010 50 207 0.0 0.0 0.00 0.00 0.00 79 1020.4
20260507065502 50 207 0.0 0.0 0.00 0.00 0.00 78 1020.5
20260507064959 50 207 0.0 0.0 0.00 0.00 0.00 77 1020.5
20260507064458 50 207 0.0 0.0 0.00 0.00 0.00 77 1020.4
20260507063955 50 207 0.0 0.0 0.00 0.00 0.00 77 1020.3
20260507063452 50 207 0.0 0.0 0.00 0.00 0.00 77 1020.3
20260507062949 50 207 0.0 0.9 0.00 0.00 0.00 77 1020.4
20260507062446 50 194 0.0 0.0 0.00 0.00 0.00 80 1020.5
20260507061944 50 194 0.0 0.0 0.00 0.00 0.00 78 1020.4
20260507061442 50 194 0.0 0.0 0.00 0.00 0.00 78 1020.3
20260507060940 49 210 0.0 0.0 0.00 0.00 0.00 81 1020.4
20260507060436 49 210 0.0 0.0 0.00 0.00 0.00 84 1020.5
20260507055933 49 210 0.0 0.0 0.00 0.00 0.00 85 1020.6
20260507055428 49 210 0.0 0.0 0.00 0.00 0.00 84 1020.5
20260507054925 49 209 0.0 0.0 0.00 0.00 0.00 85 1020.5
20260507054421 49 209 0.0 0.0 0.00 0.00 0.00 86 1020.6
20260507053919 49 209 0.0 0.0 0.00 0.00 0.00 87 1020.4
20260507053416 49 209 0.0 0.0 0.00 0.00 0.00 88 1020.6
20260507052915 49 210 0.0 0.0 0.00 0.00 0.00 88 1020.5
20260507052412 48 209 0.0 0.0 0.00 0.00 0.00 88 1020.3
20260507051909 48 209 0.0 0.0 0.00 0.00 0.00 87 1020.3
20260507051407 48 209 0.0 0.0 0.00 0.00 0.00 87 1020.6
20260507050903 48 209 0.0 0.0 0.00 0.00 0.00 87 1020.5
20260507050359 48 209 0.0 0.0 0.00 0.00 0.00 87 1020.6
20260507045856 48 209 0.0 0.0 0.00 0.07 0.07 86 1020.6
20260507045353 48 210 0.0 0.0 0.00 0.07 0.07 85 1020.7
20260507044850 48 209 0.0 0.0 0.00 0.07 0.07 85 1020.6
20260507044347 49 209 0.0 0.0 0.00 0.07 0.07 83 1020.4
20260507043842 49 209 0.0 0.0 0.00 0.07 0.07 83 1020.6
20260507043339 50 209 0.0 0.0 0.00 0.07 0.07 82 1020.6
20260507042836 50 210 0.0 0.0 0.00 0.07 0.07 81 1020.5
20260507042331 50 209 0.0 0.0 0.00 0.07 0.07 81 1020.7
20260507041829 51 210 0.0 0.0 0.00 0.07 0.07 79 1020.4
20260507041325 51 210 0.0 0.0 0.00 0.07 0.07 80 1020.3
20260507040822 51 210 0.0 0.0 0.00 0.07 0.07 80 1020.4
20260507040318 51 210 0.0 0.0 0.00 0.07 0.07 79 1020.7
20260507035814 52 210 0.0 0.0 0.00 0.07 0.07 77 1020.5
20260507035310 52 210 0.0 0.0 0.00 0.07 0.07 77 1020.7
20260507034808 52 210 0.9 0.9 0.00 0.07 0.07 73 1020.6
20260507034305 52 209 0.0 0.0 0.00 0.07 0.07 73 1020.5
20260507033803 52 209 0.0 0.0 0.00 0.07 0.07 73 1020.5
20260507033300 52 209 0.0 0.0 0.00 0.07 0.07 73 1020.5
20260507032757 52 209 0.0 0.0 0.00 0.07 0.07 73 1020.4
20260507032253 52 210 0.0 0.0 0.00 0.07 0.07 74 1020.4
20260507031749 52 210 0.0 0.0 0.00 0.07 0.07 71 1020.7
20260507031247 52 210 0.0 0.0 0.00 0.07 0.07 70 1020.5
20260507030743 53 210 0.0 0.0 0.00 0.07 0.07 73 1020.3
20260507030241 53 210 0.0 0.0 0.00 0.07 0.07 71 1020.2
20260507025738 53 210 0.0 0.0 0.00 0.07 0.07 68 1020.4
20260507025235 53 210 0.0 0.0 0.00 0.07 0.07 69 1020.6
20260507024733 53 210 0.0 0.0 0.00 0.07 0.07 69 1020.3
20260507024230 53 210 0.0 0.0 0.00 0.07 0.07 68 1020.4
20260507023725 54 210 0.0 0.0 0.00 0.07 0.07 69 1020.0
20260507023222 53 219 0.0 0.0 0.00 0.07 0.07 60 1020.3
20260507022720 53 219 0.0 0.0 0.00 0.07 0.07 65 1020.4
20260507022216 53 219 0.0 0.0 0.00 0.07 0.07 65 1020.3
20260507021712 53 230 0.0 0.9 0.00 0.07 0.07 67 1020.0
20260507021207 53 201 0.9 0.9 0.00 0.07 0.07 66 1020.2
20260507020706 53 183 0.0 0.0 0.00 0.07 0.07 62 1020.0
20260507020202 54 183 0.0 0.0 0.00 0.07 0.07 60 1019.7
20260507015700 54 183 0.0 0.0 0.00 0.07 0.07 60 1019.6
20260507015157 54 183 0.0 0.0 0.00 0.07 0.07 58 1019.7
20260507014653 55 183 0.0 0.0 0.00 0.07 0.07 56 1019.6
20260507014150 55 183 0.0 0.0 0.00 0.07 0.07 55 1019.5
20260507013647 55 183 0.0 0.0 0.00 0.07 0.07 55 1019.4
20260507013144 56 183 0.0 0.0 0.00 0.07 0.07 54 1019.4
20260507012642 56 183 0.0 0.0 0.00 0.07 0.07 52 1019.3
20260507012136 57 183 0.0 0.0 0.00 0.07 0.07 53 1019.1
20260507011635 57 183 0.0 0.0 0.00 0.07 0.07 51 1019.3
20260507011131 57 182 0.0 0.0 0.00 0.07 0.07 50 1019.4
20260507010626 57 186 0.0 0.0 0.00 0.07 0.07 50 1019.1
20260507010122 57 181 0.0 0.0 0.00 0.07 0.07 49 1019.0
20260507005620 57 190 0.0 0.0 0.00 0.07 0.07 49 1019.1
20260507005116 57 190 0.0 0.0 0.00 0.07 0.07 47 1019.1
20260507004613 57 186 0.0 0.0 0.00 0.07 0.07 47 1019.1
20260507004110 58 175 0.0 0.0 0.00 0.07 0.07 46 1019.0
20260507003606 58 192 0.0 0.0 0.00 0.07 0.07 46 1019.1
20260507003101 58 169 0.0 0.9 0.00 0.07 0.07 45 1019.0
20260507002558 59 154 0.9 0.9 0.00 0.07 0.07 44 1019.1
20260507002053 59 187 0.0 0.0 0.00 0.07 0.07 43 1019.1
20260507001550 60 166 0.0 0.0 0.00 0.07 0.07 44 1019.1
20260507001048 60 46 1.7 1.7 0.00 0.07 0.07 43 1019.1
20260507000544 60 68 0.0 0.9 0.00 0.07 0.07 43 1019.1
20260507000039 60 149 0.0 0.9 0.00 0.07 0.07 44 1018.9
20260506235537 60 177 0.0 0.0 0.00 0.07 0.07 45 1019.0
20260506235032 60 315 1.7 1.7 0.00 0.07 0.07 43 1018.7
20260506234530 61 213 0.9 0.9 0.00 0.07 0.07 46 1018.7
20260506234027 61 174 0.9 1.7 0.00 0.07 0.07 43 1018.7
20260506233524 61 81 1.7 1.7 0.00 0.07 0.07 43 1018.8
20260506233021 61 192 0.0 0.0 0.00 0.07 0.07 46 1018.8
20260506232517 61 214 0.0 0.0 0.00 0.07 0.07 44 1018.9
20260506232013 61 57 0.9 1.7 0.00 0.07 0.07 42 1018.8
20260506231510 61 39 1.7 1.7 0.00 0.07 0.07 43 1018.9
20260506231008 61 229 2.6 2.6 0.00 0.07 0.07 42 1018.8